EA1QW Weather Reports


Display with metric or nautical units.
time (UTC)temp
F
wind
direction
speed
MPH
gust
MPH
rain 1hr
in
rain 24hr
in
rain mn
in
humidity
%
barometer
mb
20260510141515 54 267 1.0 3.0 1.57 2.09 0.32 90 1007.8
20260510141019 53 267 0.0 3.0 1.54 2.05 0.31 89 1007.5
20260510140547 53 267 0.0 12.0 1.50 2.01 0.31 88 1007.5
20260510140013 54 267 7.0 12.0 1.50 2.01 0.31 86 1007.9
20260510135519 55 88 1.0 11.0 1.46 1.97 0.30 84 1007.6
20260510135027 56 109 6.0 11.0 1.42 1.93 0.29 82 1007.5
20260510134515 57 74 5.0 9.0 1.22 1.73 0.25 77 1007.6
20260510134022 58 183 4.0 17.0 0.98 1.50 0.20 73 1007.9
20260510133511 59 209 2.0 23.0 0.75 1.26 0.16 70 1007.8
20260510133019 62 212 16.0 23.0 0.12 0.63 0.03 70 1007.9
20260510132527 62 58 7.0 13.0 0.00 0.51 0.01 74 1006.8
20260510132015 63 360 4.0 13.0 0.00 0.51 0.01 76 1006.6
20260510131524 63 58 7.0 14.0 0.00 0.51 0.01 76 1006.2
20260510131032 64 26 9.0 15.0 0.00 0.51 0.01 76 1006.1
20260510130539 64 46 8.0 15.0 0.00 0.51 0.01 76 1006.2
20260510130026 65 54 8.0 14.0 0.00 0.51 0.01 75 1006.1
20260510125513 66 80 5.0 14.0 0.00 0.51 0.01 75 1006.0
20260510125022 66 360 5.0 12.0 0.00 0.51 0.01 76 1006.0
20260510124514 65 23 6.0 12.0 0.00 0.51 0.01 75 1006.0
20260510124018 65 51 5.0 13.0 0.00 0.51 0.01 74 1006.0
20260510123543 65 80 9.0 13.0 0.00 0.51 0.01 72 1006.0
20260510123014 64 46 8.0 13.0 0.00 0.51 0.01 72 1006.0
20260510122540 65 87 5.0 13.0 0.00 0.51 0.01 73 1006.0
20260510122012 65 80 7.0 13.0 0.00 0.51 0.01 73 1006.1
20260510121537 65 93 6.0 13.0 0.00 0.51 0.01 75 1006.2
20260510121024 64 92 8.0 16.0 0.00 0.51 0.01 72 1006.2
20260510120517 64 94 6.0 16.0 0.00 0.51 0.01 78 1006.3
20260510120025 64 59 7.0 17.0 0.00 0.51 0.01 80 1006.2
20260510115534 63 65 5.0 18.0 0.00 0.51 0.01 82 1006.3
20260510115019 63 79 10.0 18.0 0.00 0.51 0.01 82 1006.3
20260510114543 63 98 10.0 18.0 0.00 0.51 0.01 83 1006.3
20260510114014 62 136 8.0 18.0 0.00 0.51 0.01 83 1006.4
20260510113523 62 86 8.0 18.0 0.00 0.51 0.01 84 1006.4
20260510113031 62 54 8.0 18.0 0.00 0.51 0.01 83 1006.4
20260510112518 62 37 6.0 16.0 0.00 0.51 0.01 84 1006.4
20260510112026 62 86 9.0 16.0 0.00 0.51 0.01 84 1006.5
20260510111536 62 61 7.0 16.0 0.00 0.51 0.01 86 1006.6
20260510111022 62 88 7.0 14.0 0.00 0.51 0.01 86 1006.7
20260510110510 61 42 5.0 12.0 0.00 0.51 0.01 88 1006.6
20260510110018 61 101 6.0 18.0 0.00 0.51 0.01 88 1006.7
20260510105526 61 57 6.0 18.0 0.00 0.51 0.01 87 1006.7
20260510105014 61 97 6.0 20.0 0.00 0.51 0.01 87 1006.7
20260510104522 61 52 10.0 20.0 0.00 0.51 0.01 86 1006.7
20260510104009 61 53 9.0 17.0 0.00 0.51 0.01 87 1006.8
20260510103518 61 32 10.0 20.0 0.00 0.51 0.01 87 1006.8
20260510103025 61 66 12.0 20.0 0.00 0.51 0.01 87 1006.7
20260510102513 61 38 9.0 17.0 0.00 0.51 0.01 88 1006.8
20260510102021 61 17 10.0 17.0 0.00 0.51 0.01 87 1006.8
20260510101508 62 44 11.0 17.0 0.00 0.51 0.01 86 1006.8
20260510101037 62 45 10.0 18.0 0.00 0.51 0.01 86 1006.7
20260510100525 62 40 11.0 18.0 0.00 0.51 0.01 85 1006.7
20260510100032 62 32 10.0 17.0 0.00 0.51 0.01 82 1006.7
20260510095520 62 53 11.0 17.0 0.00 0.51 0.01 82 1006.7
20260510095028 63 51 11.0 16.0 0.00 0.51 0.01 82 1006.6
20260510094536 63 11 11.0 16.0 0.00 0.51 0.01 81 1006.7
20260510094041 63 49 8.0 14.0 0.00 0.51 0.01 82 1006.6
20260510093528 63 36 8.0 16.0 0.00 0.51 0.01 85 1006.7
20260510093016 63 15 10.0 16.0 0.00 0.51 0.01 83 1006.6
20260510092525 63 28 11.0 16.0 0.00 0.51 0.01 81 1006.6
20260510092013 63 51 6.0 16.0 0.00 0.51 0.01 81 1006.7
20260510091521 63 46 10.0 16.0 0.00 0.51 0.01 79 1006.7
20260510091010 63 360 9.0 16.0 0.00 0.51 0.01 81 1006.5
20260510090518 63 49 8.0 14.0 0.00 0.51 0.01 79 1006.5
20260510090027 63 45 9.0 14.0 0.00 0.51 0.01 77 1006.5
20260510085514 62 16 6.0 13.0 0.00 0.51 0.01 76 1006.5
20260510085022 62 28 8.0 13.0 0.00 0.51 0.01 76 1006.4
20260510084509 62 37 8.0 12.0 0.00 0.51 0.01 77 1006.5
20260510084016 62 27 9.0 14.0 0.00 0.51 0.01 76 1006.5
20260510083524 62 36 8.0 14.0 0.00 0.51 0.01 77 1006.6
20260510083012 62 50 5.0 10.0 0.00 0.51 0.01 78 1006.6
20260510082521 62 22 4.0 12.0 0.00 0.51 0.01 79 1006.7
20260510082010 62 72 6.0 12.0 0.00 0.51 0.01 80 1006.7
20260510081518 61 19 5.0 8.0 0.04 0.51 0.01 81 1006.7
20260510081026 61 43 0.0 5.0 0.04 0.51 0.01 82 1006.8
20260510080514 61 52 1.0 7.0 0.04 0.51 0.01 82 1006.8
20260510080042 61 51 2.0 7.0 0.04 0.51 0.01 81 1006.8
20260510075509 61 57 3.0 10.0 0.04 0.51 0.01 81 1006.7
20260510075016 61 52 4.0 10.0 0.04 0.51 0.01 81 1006.6
20260510074524 61 39 3.0 10.0 0.04 0.51 0.01 82 1006.6
20260510074013 60 25 4.0 8.0 0.04 0.51 0.01 82 1006.4
20260510073541 60 26 5.0 8.0 0.04 0.51 0.01 84 1006.5
20260510073008 60 40 2.0 6.0 0.04 0.51 0.01 88 1006.5
20260510072516 59 32 2.0 8.0 0.04 0.51 0.01 91 1006.5
20260510072046 58 44 2.0 5.0 0.04 0.51 0.01 94 1006.5
20260510071534 58 150 0.0 0.0 0.00 0.47 0.00 95 1006.6
20260510071022 57 150 0.0 0.0 0.00 0.47 0.00 95 1006.5
20260510070511 57 150 0.0 0.0 0.00 0.47 0.00 96 1006.5
20260510070019 56 150 0.0 0.0 0.00 0.47 0.00 96 1006.4
20260510065526 56 150 0.0 2.0 0.00 0.47 0.00 97 1006.5
20260510065015 55 150 0.0 2.0 0.00 0.47 0.00 98 1006.6
20260510064523 55 150 0.0 2.0 0.00 0.47 0.00 98 1006.5
20260510064011 54 150 0.0 2.0 0.00 0.47 0.00 99 1006.4
20260510063519 54 150 0.0 0.0 0.00 0.47 0.00 99 1006.3
20260510063028 54 150 0.0 0.0 0.00 0.47 0.00 99 1006.5
20260510062516 53 150 0.0 0.0 0.00 0.47 0.00 99 1006.5
20260510062024 53 150 0.0 0.0 0.00 0.47 0.00 98 1006.4
20260510061533 53 150 0.0 2.0 0.00 0.47 0.00 98 1006.4
20260510061020 52 150 0.0 2.0 0.00 0.47 0.00 98 1006.2
20260510060549 52 150 0.0 1.0 0.00 0.47 0.00 98 1006.1
20260510060014 52 150 0.0 0.0 0.00 0.47 0.00 98 1006.2
20260510055522 52 150 0.0 0.0 0.00 0.47 0.00 98 1006.1
20260510055010 52 150 0.0 0.0 0.00 0.47 0.00 98 1006.1
20260510054539 53 150 0.0 0.0 0.00 0.47 0.00 98 1006.0
20260510054026 53 150 0.0 0.0 0.00 0.47 0.00 98 1005.9
20260510053514 53 150 0.0 2.0 0.00 0.47 0.00 98 1006.0
20260510053021 53 150 0.0 3.0 0.00 0.47 0.00 98 1006.0
20260510052510 53 150 2.0 3.0 0.00 0.47 0.00 98 1006.0
20260510052016 53 150 0.0 0.0 0.00 0.47 0.00 98 1006.0
20260510051509 53 150 0.0 0.0 0.00 0.47 0.00 98 1006.0
20260510051017 53 150 0.0 0.0 0.00 0.47 0.00 98 1006.1
20260510050525 53 150 0.0 0.0 0.00 0.47 0.00 98 1006.1
20260510050013 53 150 0.0 0.0 0.00 0.51 0.00 98 1006.0
20260510045521 53 150 0.0 0.0 0.00 0.51 0.00 98 1006.1
20260510045009 53 150 0.0 1.0 0.00 0.51 0.00 98 1006.0
20260510044517 53 150 0.0 2.0 0.00 0.51 0.00 98 1005.9
20260510044024 53 150 0.0 2.0 0.00 0.51 0.00 98 1005.9
20260510043512 53 150 0.0 2.0 0.00 0.51 0.00 98 1005.8
20260510043019 53 150 1.0 2.0 0.00 0.51 0.00 98 1005.8
20260510042528 53 150 0.0 1.0 0.00 0.51 0.00 98 1005.8
20260510042015 53 150 0.0 1.0 0.00 0.51 0.00 98 1005.8
20260510041522 53 150 0.0 0.0 0.00 0.51 0.00 98 1005.8
20260510041011 53 150 0.0 0.0 0.00 0.51 0.00 98 1005.8
20260510040519 53 150 0.0 0.0 0.00 0.51 0.00 98 1005.7
20260510040027 53 150 0.0 0.0 0.00 0.51 0.00 98 1005.6
20260510035515 53 150 0.0 0.0 0.00 0.51 0.00 98 1005.6
20260510035023 53 150 0.0 1.0 0.00 0.51 0.00 97 1005.5
20260510034511 53 150 0.0 0.0 0.00 0.51 0.00 97 1005.4
20260510034038 53 150 0.0 0.0 0.00 0.51 0.00 97 1005.5
20260510033525 53 150 0.0 0.0 0.00 0.51 0.00 97 1005.6
20260510033012 53 150 0.0 3.0 0.00 0.51 0.00 97 1005.6
20260510032521 53 150 2.0 3.0 0.00 0.51 0.00 97 1005.5
20260510032009 53 150 0.0 1.0 0.00 0.51 0.00 97 1005.3
20260510031517 53 150 0.0 2.0 0.00 0.51 0.00 97 1005.5
20260510031025 54 150 0.0 3.0 0.00 0.51 0.00 97 1005.4
20260510030513 53 150 1.0 3.0 0.00 0.51 0.00 97 1005.3
20260510030021 53 150 1.0 3.0 0.00 0.51 0.00 97 1005.5
20260510025509 53 150 0.0 0.0 0.00 0.51 0.00 97 1005.5
20260510025015 53 150 0.0 0.0 0.00 0.51 0.00 97 1005.5
20260510024523 53 150 0.0 3.0 0.00 0.51 0.00 97 1005.5
20260510024032 53 150 0.0 3.0 0.00 0.51 0.00 97 1005.4
20260510023519 53 150 0.0 3.0 0.00 0.51 0.00 97 1005.5
20260510023028 53 150 1.0 3.0 0.00 0.51 0.00 97 1005.5
20260510022516 53 153 0.0 1.0 0.00 0.51 0.00 97 1005.4
20260510022044 53 153 0.0 1.0 0.00 0.51 0.00 97 1005.5
20260510021512 53 153 0.0 3.0 0.00 0.51 0.00 97 1005.4
20260510021020 53 153 0.0 3.0 0.00 0.51 0.00 97 1005.5
20260510020528 53 153 0.0 2.0 0.00 0.51 0.00 97 1005.5
20260510020016 53 153 0.0 1.0 0.00 0.51 0.00 96 1005.5
20260510015524 53 153 0.0 0.0 0.00 0.51 0.00 96 1005.5
20260510015012 53 153 0.0 0.0 0.00 0.51 0.00 96 1005.6
20260510014520 53 153 0.0 0.0 0.00 0.51 0.00 96 1005.5
20260510014028 53 153 0.0 0.0 0.00 0.51 0.00 96 1005.4
20260510013516 53 153 0.0 0.0 0.00 0.51 0.00 96 1005.5
20260510013024 53 153 0.0 0.0 0.00 0.51 0.00 96 1005.4
20260510012533 53 153 0.0 0.0 0.00 0.51 0.00 96 1005.3
20260510012019 53 153 0.0 0.0 0.00 0.51 0.00 96 1005.2
20260510011527 53 153 0.0 0.0 0.00 0.51 0.00 96 1005.3
20260510011035 53 153 0.0 0.0 0.00 0.51 0.00 95 1005.4
20260510010544 53 153 0.0 0.0 0.00 0.51 0.00 95 1005.5
20260510010011 53 153 0.0 0.0 0.00 0.51 0.00 95 1005.6
20260510005518 53 153 0.0 0.0 0.00 0.51 0.00 95 1005.6
20260510005047 53 153 0.0 0.0 0.00 0.51 0.00 95 1005.7
20260510004513 53 153 0.0 0.0 0.00 0.51 0.00 95 1005.7
20260510004022 53 153 0.0 0.0 0.00 0.51 0.00 94 1005.8
20260510003510 53 153 0.0 0.0 0.00 0.51 0.00 94 1005.7
20260510003017 53 153 0.0 0.0 0.00 0.51 0.00 94 1005.6
20260510002525 53 153 0.0 0.0 0.00 0.51 0.00 94 1005.5
20260510002014 53 153 0.0 0.0 0.00 0.51 0.00 94 1005.5
20260510001522 53 153 0.0 0.0 0.00 0.51 0.00 94 1005.4
20260510001031 53 153 0.0 0.0 0.00 0.51 0.00 93 1005.6
20260510000519 53 153 0.0 0.0 0.00 0.51 0.00 93 1005.6
20260510000047 54 153 0.0 0.0 0.00 0.51 0.10 93 1005.6
20260509235514 54 153 0.0 1.0 0.00 0.51 0.10 93 1005.6
20260509235022 54 153 0.0 1.0 0.00 0.51 0.10 93 1005.6
20260509234510 54 153 0.0 3.0 0.00 0.51 0.10 92 1005.7
20260509234017 54 153 1.0 6.0 0.00 0.51 0.10 92 1005.7
20260509233525 54 153 0.0 6.0 0.00 0.51 0.10 92 1005.7
20260509233012 54 149 1.0 3.0 0.00 0.51 0.10 92 1005.8
20260509232521 54 151 1.0 3.0 0.00 0.51 0.10 92 1005.8
20260509232023 55 161 0.0 0.0 0.00 0.51 0.10 91 1005.8
20260509231511 55 161 0.0 0.0 0.00 0.51 0.10 91 1005.9
20260509231018 55 161 0.0 3.0 0.00 0.51 0.10 91 1005.9
20260509230526 55 161 0.0 5.0 0.00 0.51 0.10 90 1006.0
20260509230013 55 261 0.0 3.0 0.00 0.51 0.10 90 1005.9
20260509225521 56 261 0.0 0.0 0.00 0.51 0.10 90 1005.8
20260509225009 56 261 0.0 0.0 0.00 0.51 0.10 90 1006.0
20260509224517 56 261 0.0 1.0 0.00 0.51 0.10 89 1006.0
20260509224010 56 261 0.0 1.0 0.00 0.51 0.10 89 1005.9
20260509223518 56 261 0.0 0.0 0.00 0.51 0.10 88 1005.9
20260509223044 57 261 0.0 0.0 0.00 0.51 0.10 88 1005.9
20260509222531 57 261 0.0 0.0 0.00 0.51 0.10 88 1005.9
20260509222017 57 261 0.0 0.0 0.00 0.51 0.10 88 1005.9
20260509221508 57 261 0.0 4.0 0.00 0.51 0.10 88 1005.9
20260509221017 57 261 1.0 6.0 0.00 0.51 0.10 88 1005.9
20260509220525 56 261 2.0 6.0 0.00 0.51 0.10 89 1005.9
20260509220014 56 259 0.0 6.0 0.00 0.51 0.10 89 1005.8
20260509215522 56 259 1.0 9.0 0.00 0.51 0.10 90 1005.8
20260509215010 56 259 4.0 9.0 0.00 0.51 0.10 92 1005.7
20260509214519 56 261 5.0 8.0 0.00 0.51 0.10 93 1005.6
20260509214048 56 96 0.0 2.0 0.00 0.51 0.10 93 1005.5
20260509213535 56 96 0.0 0.0 0.00 0.51 0.10 92 1005.3
20260509213021 56 96 0.0 0.0 0.00 0.51 0.10 92 1005.3
20260509212509 57 96 0.0 0.0 0.00 0.51 0.10 92 1005.2
20260509212018 57 96 0.0 0.0 0.00 0.51 0.10 92 1005.3
20260509211526 57 96 0.0 0.0 0.00 0.51 0.10 92 1005.2
20260509211014 57 96 0.0 0.0 0.00 0.51 0.10 92 1005.3
20260509210522 57 96 0.0 0.0 0.00 0.51 0.10 91 1005.2
20260509210010 57 96 0.0 0.0 0.00 0.51 0.10 91 1005.3
20260509205539 57 96 0.0 0.0 0.00 0.51 0.10 91 1005.2
20260509205027 58 96 0.0 0.0 0.00 0.51 0.10 91 1005.2
20260509204536 58 96 0.0 0.0 0.00 0.51 0.10 91 1005.0
20260509204019 58 96 0.0 3.0 0.00 0.51 0.10 91 1005.0
20260509203528 58 96 0.0 3.0 0.00 0.51 0.10 91 1004.9
20260509203017 58 96 2.0 3.0 0.00 0.51 0.10 91 1004.9
20260509202525 58 96 0.0 1.0 0.00 0.51 0.10 90 1004.8
20260509202013 59 96 0.0 1.0 0.00 0.51 0.10 89 1004.6
20260509201521 59 96 0.0 3.0 0.00 0.51 0.10 89 1004.6
20260509201010 59 96 0.0 3.0 0.00 0.51 0.10 89 1004.5
20260509200539 59 96 0.0 0.0 0.00 0.51 0.10 89 1004.5
20260509200026 59 96 0.0 0.0 0.00 0.51 0.10 88 1004.5
20260509195514 59 96 0.0 0.0 0.04 0.51 0.10 88 1005.2
20260509195023 59 97 0.0 0.0 0.12 0.51 0.10 86 1004.4
20260509194510 59 96 0.0 3.0 0.12 0.51 0.10 86 1004.5
20260509194019 59 96 0.0 6.0 0.12 0.51 0.10 86 1004.4
20260509193547 59 96 3.0 6.0 0.12 0.51 0.10 85 1004.4
20260509193014 60 84 1.0 6.0 0.16 0.51 0.10 85 1004.3
20260509192522 60 84 2.0 6.0 0.16 0.51 0.10 84 1004.2
20260509192010 60 154 2.0 3.0 0.16 0.51 0.10 81 1004.4
20260509191519 60 155 0.0 0.0 0.16 0.51 0.10 80 1004.2
20260509191045 61 155 0.0 6.0 0.16 0.51 0.10 79 1004.2
20260509190512 61 155 0.0 9.0 0.16 0.51 0.10 78 1004.5
20260509190017 62 174 3.0 11.0 0.16 0.51 0.10 77 1004.7
20260509185524 62 202 5.0 20.0 0.12 0.47 0.09 76 1005.0
20260509185013 64 143 8.0 19.0 0.04 0.39 0.08 76 1005.0
20260509184521 65 135 7.0 15.0 0.04 0.39 0.08 79 1004.7
20260509184010 65 113 2.0 6.0 0.04 0.39 0.08 79 1003.8
20260509183517 65 121 0.0 4.0 0.04 0.39 0.08 79 1003.6
20260509183025 65 121 0.0 2.0 0.00 0.35 0.07 78 1003.5
20260509182514 64 121 0.0 6.0 0.00 0.35 0.07 78 1003.5
20260509182021 64 121 2.0 7.0 0.00 0.35 0.07 78 1003.4
20260509181510 64 92 3.0 7.0 0.00 0.35 0.07 78 1003.3
20260509181017 64 42 1.0 5.0 0.00 0.35 0.07 78 1003.3
20260509180526 64 42 1.0 6.0 0.00 0.35 0.07 78 1003.2
20260509180014 64 42 4.0 13.0 0.00 0.35 0.07 78 1003.3
20260509175523 64 36 5.0 13.0 0.00 0.35 0.07 78 1003.2
20260509175011 64 57 6.0 12.0 0.00 0.35 0.07 79 1003.1
20260509174540 65 40 6.0 13.0 0.00 0.35 0.07 77 1003.1
20260509174027 65 34 6.0 13.0 0.00 0.35 0.07 76 1003.0
20260509173515 65 13 6.0 13.0 0.00 0.35 0.07 74 1003.0
20260509173023 65 24 6.0 14.0 0.00 0.35 0.07 73 1003.2
20260509172511 66 360 8.0 17.0 0.00 0.35 0.07 71 1003.1
20260509172019 67 19 10.0 17.0 0.00 0.35 0.07 68 1003.1
20260509171527 68 63 7.0 11.0 0.00 0.35 0.07 65 1002.9
20260509171015 69 15 7.0 11.0 0.00 0.35 0.07 63 1002.8
20260509170524 70 22 5.0 9.0 0.00 0.35 0.07 63 1002.8
20260509170017 70 21 1.0 6.0 0.00 1.22 0.07 63 1002.9
20260509165525 70 22 0.0 4.0 0.00 1.22 0.07 63 1002.8
20260509165013 70 360 1.0 4.0 0.00 1.22 0.07 63 1002.8
20260509164521 69 31 1.0 4.0 0.00 1.22 0.07 63 1002.7
20260509164026 69 33 1.0 6.0 0.00 1.22 0.07 64 1002.9
20260509163514 68 5 2.0 8.0 0.00 1.22 0.07 65 1002.9
20260509163019 68 96 1.0 9.0 0.00 1.22 0.07 67 1002.9
20260509162548 67 38 4.0 9.0 0.00 1.22 0.07 66 1002.9
20260509162015 67 96 5.0 8.0 0.00 1.22 0.07 69 1002.8
20260509161524 67 57 3.0 9.0 0.00 1.22 0.07 72 1003.0
20260509161011 66 49 1.0 9.0 0.00 1.22 0.07 76 1003.0
20260509160540 65 74 2.0 5.0 0.00 1.22 0.07 78 1003.1
20260509160028 65 57 0.0 4.0 0.00 1.30 0.07 79 1003.2
20260509155535 65 57 2.0 5.0 0.00 1.30 0.07 80 1003.2
20260509155039 65 58 2.0 6.0 0.04 1.30 0.07 84 1003.4
20260509154526 64 38 3.0 6.0 0.08 1.30 0.07 87 1003.5
20260509154014 64 107 3.0 8.0 0.16 1.30 0.07 89 1003.6
20260509153543 64 82 4.0 8.0 0.20 1.30 0.07 91 1003.7
20260509153011 63 86 3.0 9.0 0.24 1.30 0.07 92 1003.7
20260509152519 63 94 4.0 8.0 0.28 1.30 0.07 92 1003.9
20260509152028 63 90 1.0 4.0 0.28 1.30 0.07 93 1004.0
20260509151516 63 90 0.0 0.0 0.31 1.30 0.07 93 1004.0
20260509151024 63 90 0.0 3.0 0.31 1.30 0.07 92 1004.1
20260509150512 63 90 0.0 3.0 0.31 1.30 0.07 92 1004.2
20260509150020 63 90 0.0 0.0 0.31 1.30 0.07 91 1004.1
20260509145509 62 90 0.0 4.0 0.31 1.30 0.07 90 1004.2
20260509145016 62 90 0.0 4.0 0.28 1.26 0.06 89 1004.2
20260509144525 63 90 2.0 4.0 0.24 1.22 0.06 88 1004.3
20260509144034 63 90 0.0 3.0 0.16 1.14 0.04 86 1004.4
20260509143542 63 90 0.0 3.0 0.12 1.10 0.03 85 1004.4
20260509143029 63 90 1.0 3.0 0.08 1.06 0.02 83 1004.1
20260509142517 63 90 1.0 3.0 0.04 1.02 0.02 81 1004.2
20260509142023 63 90 0.0 3.0 0.04 1.02 0.02 79 1004.3